| time (UTC) | temp C | wind direction | speed KPH | gust KPH | rain 1hr cm | rain 24hr cm | rain mn cm | humidity % | barometer mb |
| 20260507094537 | 18 | 0 | 0.0 | 0.0 | 0.00 | 0.00 | 0.00 | 41 | 1008.1 |
| 20260507093037 | 18 | 0 | 0.0 | 0.0 | 0.00 | 0.00 | 0.00 | 40 | 1008.1 |
| 20260507091539 | 19 | 0 | 0.0 | 0.0 | 0.00 | 0.00 | 0.00 | 40 | 1008.1 |
| 20260507090036 | 19 | 0 | 0.0 | 0.0 | 0.00 | 0.00 | 0.00 | 40 | 1008.2 |
| 20260507084545 | 19 | 0 | 0.0 | 0.0 | 0.00 | 0.00 | 0.00 | 40 | 1008.3 |
| 20260507083037 | 20 | 0 | 0.0 | 0.0 | 0.00 | 0.00 | 0.00 | 43 | 1008.5 |
| 20260507081538 | 20 | 0 | 0.0 | 0.0 | 0.00 | 0.00 | 0.00 | 43 | 1008.5 |
| 20260507080046 | 20 | 0 | 0.0 | 0.0 | 0.00 | 0.00 | 0.00 | 42 | 1008.8 |
| 20260507074541 | 20 | 0 | 0.0 | 0.0 | 0.00 | 0.00 | 0.00 | 41 | 1008.8 |
| 20260507073042 | 20 | 0 | 0.0 | 0.0 | 0.00 | 0.00 | 0.00 | 39 | 1008.9 |
| 20260507071535 | 21 | 0 | 0.0 | 0.0 | 0.00 | 0.00 | 0.00 | 38 | 1008.9 |
| 20260507070101 | 21 | 0 | 0.0 | 0.0 | 0.00 | 0.00 | 0.00 | 36 | 1008.9 |
| 20260507064549 | 21 | 0 | 0.0 | 0.0 | 0.00 | 0.00 | 0.00 | 35 | 1009.1 |
| 20260507063041 | 21 | 0 | 0.0 | 0.0 | 0.00 | 0.00 | 0.00 | 34 | 1009.0 |
| 20260507061539 | 22 | 0 | 0.0 | 0.0 | 0.00 | 0.00 | 0.00 | 34 | 1009.0 |
| 20260507060039 | 22 | 0 | 0.0 | 0.0 | 0.00 | 0.00 | 0.00 | 34 | 1009.0 |
| 20260507054552 | 22 | 0 | 0.0 | 0.0 | 0.00 | 0.00 | 0.00 | 32 | 1008.9 |
| 20260507053041 | 23 | 0 | 0.0 | 0.0 | 0.00 | 0.00 | 0.00 | 30 | 1009.2 |
| 20260507051541 | 23 | 0 | 0.0 | 0.0 | 0.00 | 0.00 | 0.00 | 28 | 1009.0 |
| 20260507050047 | 23 | 0 | 0.0 | 0.0 | 0.00 | 0.00 | 0.00 | 27 | 1009.0 |
| 20260507044546 | 24 | 0 | 0.0 | 0.0 | 0.00 | 0.00 | 0.00 | 26 | 1009.0 |
| 20260507043036 | 25 | 0 | 0.0 | 0.0 | 0.00 | 0.00 | 0.00 | 25 | 1008.9 |
| 20260507041542 | 25 | 0 | 0.0 | 0.0 | 0.00 | 0.00 | 0.00 | 23 | 1009.1 |
| 20260507040044 | 25 | 0 | 0.0 | 0.0 | 0.00 | 0.00 | 0.00 | 23 | 1008.7 |
| 20260507034540 | 26 | 0 | 0.0 | 0.0 | 0.00 | 0.00 | 0.00 | 22 | 1008.4 |
| 20260507033042 | 26 | 0 | 0.0 | 0.0 | 0.00 | 0.00 | 0.00 | 21 | 1008.1 |
| 20260507031541 | 26 | 0 | 0.0 | 0.0 | 0.00 | 0.00 | 0.00 | 19 | 1007.9 |
| 20260507030036 | 27 | 0 | 0.0 | 0.0 | 0.00 | 0.00 | 0.00 | 19 | 1007.7 |
| 20260507024538 | 27 | 0 | 0.0 | 0.0 | 0.00 | 0.00 | 0.00 | 19 | 1007.5 |
| 20260507023040 | 28 | 0 | 0.0 | 3.2 | 0.00 | 0.00 | 0.00 | 18 | 1007.3 |
| 20260507021538 | 29 | 0 | 0.0 | 1.6 | 0.00 | 0.00 | 0.00 | 17 | 1007.1 |
| 20260507020104 | 30 | 0 | 0.0 | 1.6 | 0.00 | 0.00 | 0.00 | 16 | 1006.9 |
| 20260507014556 | 31 | 0 | 0.0 | 0.0 | 0.00 | 0.00 | 0.00 | 16 | 1007.0 |
| 20260507013043 | 32 | 0 | 0.0 | 0.0 | 0.00 | 0.00 | 0.00 | 13 | 1006.8 |
| 20260507011542 | 31 | 0 | 0.0 | 0.0 | 0.00 | 0.00 | 0.00 | 14 | 1006.8 |
| 20260507010043 | 32 | 0 | 0.0 | 1.6 | 0.00 | 0.00 | 0.00 | 14 | 1006.8 |
| 20260507004539 | 32 | 0 | 0.0 | 4.8 | 0.00 | 0.00 | 0.00 | 14 | 1006.8 |
| 20260507003043 | 32 | 0 | 0.0 | 4.8 | 0.00 | 0.00 | 0.00 | 14 | 1006.6 |
| 20260507001554 | 32 | 0 | 0.0 | 8.0 | 0.00 | 0.00 | 0.00 | 12 | 1006.6 |
| 20260507000038 | 32 | 79 | 0.0 | 6.4 | 0.00 | 0.00 | 0.00 | 12 | 1006.5 |
| 20260506234601 | 32 | 0 | 0.0 | 4.8 | 0.00 | 0.00 | 0.00 | 12 | 1006.5 |
| 20260506233047 | 32 | 0 | 0.0 | 6.4 | 0.00 | 0.00 | 0.00 | 13 | 1006.5 |
| 20260506231543 | 33 | 0 | 0.0 | 6.4 | 0.00 | 0.00 | 0.00 | 12 | 1006.6 |
| 20260506230037 | 32 | 0 | 0.0 | 8.0 | 0.00 | 0.00 | 0.00 | 13 | 1006.8 |
| 20260506224536 | 31 | 0 | 0.0 | 8.0 | 0.00 | 0.00 | 0.00 | 14 | 1007.0 |
| 20260506223044 | 31 | 0 | 0.0 | 6.4 | 0.00 | 0.00 | 0.00 | 14 | 1007.3 |
| 20260506221552 | 31 | 0 | 0.0 | 6.4 | 0.00 | 0.00 | 0.00 | 14 | 1007.6 |
| 20260506220046 | 31 | 0 | 1.6 | 8.0 | 0.00 | 0.00 | 0.00 | 14 | 1007.8 |
| 20260506214540 | 31 | 0 | 0.0 | 8.0 | 0.00 | 0.00 | 0.00 | 15 | 1008.0 |
| 20260506213043 | 31 | 0 | 0.0 | 6.4 | 0.00 | 0.00 | 0.00 | 15 | 1008.3 |
| 20260506211544 | 30 | 0 | 0.0 | 4.8 | 0.00 | 0.00 | 0.00 | 16 | 1008.5 |
| 20260506210047 | 30 | 0 | 0.0 | 6.4 | 0.00 | 0.00 | 0.00 | 17 | 1008.7 |
| 20260506204538 | 30 | 0 | 0.0 | 9.7 | 0.00 | 0.00 | 0.00 | 17 | 1009.0 |
| 20260506203038 | 28 | 0 | 0.0 | 6.4 | 0.00 | 0.00 | 0.00 | 18 | 1009.2 |
| 20260506201540 | 28 | 0 | 0.0 | 6.4 | 0.00 | 0.00 | 0.00 | 19 | 1009.4 |
| 20260506200037 | 28 | 89 | 0.0 | 4.8 | 0.00 | 0.00 | 0.00 | 18 | 1009.6 |
| 20260506194537 | 27 | 0 | 0.0 | 0.0 | 0.00 | 0.00 | 0.00 | 19 | 1009.8 |
| 20260506193047 | 27 | 0 | 0.0 | 6.4 | 0.00 | 0.00 | 0.00 | 20 | 1010.1 |
| 20260506191538 | 26 | 0 | 0.0 | 6.4 | 0.00 | 0.00 | 0.00 | 20 | 1010.2 |
| 20260506190040 | 26 | 94 | 0.0 | 6.4 | 0.00 | 0.00 | 0.00 | 21 | 1010.5 |
| 20260506184540 | 26 | 0 | 0.0 | 6.4 | 0.00 | 0.00 | 0.00 | 21 | 1010.6 |
| 20260506183036 | 26 | 0 | 0.0 | 4.8 | 0.00 | 0.00 | 0.00 | 22 | 1010.8 |
| 20260506181556 | 25 | 0 | 0.0 | 11.3 | 0.00 | 0.00 | 0.00 | 24 | 1010.9 |
| 20260506180044 | 25 | 0 | 1.6 | 8.0 | 0.00 | 0.00 | 0.00 | 23 | 1010.9 |
| 20260506174541 | 25 | 0 | 0.0 | 6.4 | 0.00 | 0.00 | 0.00 | 26 | 1011.0 |
| 20260506173104 | 25 | 0 | 1.6 | 9.7 | 0.00 | 0.00 | 0.00 | 25 | 1010.9 |
| 20260506171542 | 24 | 0 | 0.0 | 8.0 | 0.00 | 0.00 | 0.00 | 28 | 1010.8 |
| 20260506170051 | 24 | 0 | 0.0 | 0.0 | 0.00 | 0.00 | 0.00 | 28 | 1010.8 |
| 20260506164551 | 24 | 0 | 0.0 | 0.0 | 0.00 | 0.00 | 0.00 | 27 | 1010.9 |
| 20260506163050 | 23 | 0 | 0.0 | 0.0 | 0.00 | 0.00 | 0.00 | 30 | 1010.9 |
| 20260506161542 | 23 | 0 | 0.0 | 0.0 | 0.00 | 0.00 | 0.00 | 29 | 1010.9 |
| 20260506160042 | 22 | 0 | 0.0 | 0.0 | 0.00 | 0.00 | 0.00 | 31 | 1010.8 |
| 20260506154551 | 22 | 0 | 0.0 | 0.0 | 0.00 | 0.00 | 0.00 | 33 | 1010.9 |
| 20260506153040 | 22 | 0 | 0.0 | 0.0 | 0.00 | 0.00 | 0.00 | 35 | 1010.8 |
| 20260506151544 | 21 | 0 | 0.0 | 0.0 | 0.00 | 0.00 | 0.00 | 38 | 1010.7 |
| 20260506150042 | 20 | 0 | 0.0 | 0.0 | 0.00 | 0.00 | 0.00 | 41 | 1010.7 |
| 20260506144550 | 18 | 0 | 0.0 | 0.0 | 0.00 | 0.00 | 0.00 | 45 | 1010.7 |
| 20260506143037 | 16 | 0 | 0.0 | 0.0 | 0.00 | 0.00 | 0.00 | 51 | 1010.6 |
| 20260506141542 | 15 | 0 | 0.0 | 0.0 | 0.00 | 0.00 | 0.00 | 53 | 1010.6 |
| 20260506140040 | 15 | 0 | 0.0 | 0.0 | 0.00 | 0.00 | 0.00 | 55 | 1010.2 |
| 20260506134542 | 13 | 0 | 0.0 | 0.0 | 0.00 | 0.00 | 0.00 | 56 | 1010.1 |
| 20260506133052 | 13 | 0 | 0.0 | 0.0 | 0.00 | 0.00 | 0.00 | 56 | 1009.9 |
| 20260506131537 | 13 | 0 | 0.0 | 0.0 | 0.00 | 0.00 | 0.00 | 56 | 1009.8 |
| 20260506130038 | 13 | 0 | 0.0 | 0.0 | 0.00 | 0.00 | 0.00 | 56 | 1009.6 |
| 20260506124535 | 13 | 0 | 0.0 | 0.0 | 0.00 | 0.00 | 0.00 | 55 | 1009.4 |
| 20260506123040 | 13 | 0 | 0.0 | 0.0 | 0.00 | 0.00 | 0.00 | 55 | 1009.3 |
| 20260506121541 | 13 | 0 | 0.0 | 0.0 | 0.00 | 0.00 | 0.00 | 55 | 1009.2 |
| 20260506120037 | 13 | 0 | 0.0 | 0.0 | 0.00 | 0.00 | 0.00 | 54 | 1008.9 |
| 20260506114540 | 13 | 0 | 0.0 | 0.0 | 0.00 | 0.00 | 0.00 | 53 | 1009.0 |
| 20260506113036 | 13 | 0 | 0.0 | 0.0 | 0.00 | 0.00 | 0.00 | 53 | 1008.9 |
| 20260506111543 | 14 | 0 | 0.0 | 0.0 | 0.00 | 0.00 | 0.00 | 52 | 1008.9 |
| 20260506110045 | 14 | 0 | 0.0 | 0.0 | 0.00 | 0.00 | 0.00 | 51 | 1009.0 |
| 20260506104605 | 15 | 0 | 0.0 | 0.0 | 0.00 | 0.00 | 0.00 | 51 | 1009.0 |
| 20260506103040 | 15 | 0 | 0.0 | 0.0 | 0.00 | 0.00 | 0.00 | 50 | 1008.8 |
| 20260506101540 | 15 | 0 | 0.0 | 0.0 | 0.00 | 0.00 | 0.00 | 50 | 1008.7 |
| 20260506100044 | 15 | 0 | 0.0 | 0.0 | 0.00 | 0.00 | 0.00 | 49 | 1008.6 |